     2              OBSERVATION DATA                        RINEX VERSION / TYPE
DAT2RIN 2.35a dat2rin 10JUL00 18:11:09 GMT                  PGM / RUN BY / DATE
Kern IGP(F.Kern)                                            OBSERVER / AGENCY
12590 TRIMBLE 4000SSI Nav 7.29 Sig 3.07                     REC # / TYPE / VERS
00220200 UNKNOWN                                            ANT # / TYPE
0029                                                        MARKER NAME
0029                                                        MARKER NUMBER
  3907191.6428   657112.9976  4981940.5575                  APPROX POSITION XYZ
        1.3800        0.0000        0.0000                  ANTENNA: DELTA H/E/N
*** Above antenna height is from mark to BOTTOM OF ANTENNA. COMMENT
     1     1     0                                          WAVELENGTH FACT L1/2
     4    L1    C1    L2    P2                              # / TYPES OF OBSERV
     5                                                      INTERVAL
  2000     7    10    12     8    5.000000                  TIME OF FIRST OBS
  2000     7    10    13    44   25.000000                  TIME OF LAST OBS
     8                                                      # OF SATELLITES
           1  1157  1157  1157  1157                        PRN / # OF OBS
           4   653   654   638   638                        PRN / # OF OBS
           7  1157  1157  1149  1149                        PRN / # OF OBS
          11  1157  1157  1157  1157                        PRN / # OF OBS
          16  1157  1157  1154  1154                        PRN / # OF OBS
          19     7     7     0     0                        PRN / # OF OBS
          20  1157  1157  1157  1157                        PRN / # OF OBS
          25  1137  1137  1098  1098                        PRN / # OF OBS
                                                            END OF HEADER
  0  7 10 12  8  5.0000000  0  6  1  7 11 16 20 25
   -177632.31215  23238958.56305    -20808.45556  23238968.31646
   -107068.95216  22825980.96906    -40156.83456  22825986.87546
     82355.01318  20778634.85908     27586.08257  20778639.62947
    -68120.61216  22247046.75006
    -66548.28718  20506051.43008    -10911.48757  20506056.28147
   -120180.22115  23816339.51605     -9919.73755  23816346.27745
  0  7 10 12  8 10.0000000  0  6  1  7 11 16 20 25
   -196642.26405  23235341.64105    -35621.35445  23235350.58645
   -116401.76206  22824205.55506    -47429.13446  22824211.77746
     90226.41308  20780132.71108     33719.63747  20780137.55147
    -83446.80806  22244130.60206
    -73459.04808  20504736.32008    -16296.47847  20504741.25447
   -130723.56305  23814333.06305    -18135.26545  23814339.82445
  0  7 10 12  8 15.0000000  0  6  1  7 11 16 20 25
   -215597.31106  23231734.39806    -50391.48345  23231743.81345
   -125671.47006  22822441.52306    -54652.27146  22822447.35946
     98158.56608  20781642.07808     39900.52747  20781646.82447
    -98716.65506  22241224.53906
    -80309.70208  20503432.85908    -21634.64247  20503437.86347
   -141206.81705  23812337.92205    -26303.98645  23812346.18845
  0  7 10 12  8 20.0000000  0  6  1  7 11 16 20 25
   -234498.21106  23228137.48406    -65119.43345  23228148.00045
   -134878.68706  22820689.14106    -61826.72246  22820694.83646
    106150.76608  20783162.96908     46128.20447  20783167.72747
   -113930.89307  22238329.46107     -7105.87656  22238335.87146
    -87100.99808  20502140.35908    -26926.55447  20502145.41047
   -151630.77204  23810353.95304    -34426.55245  23810361.58645
  0  7 10 12  8 25.0000000  0  6  1  7 11 16 20 25
   -253345.22206  23224551.96106    -79805.39246  23224561.46946
   -144023.83306  22818949.13306    -68952.81446  22818955.23846
    114202.74008  20784695.18808     52402.46547  20784699.92247
   -129089.79907  22235444.75007    -18917.98346  22235451.03146
    -93833.18708  20500859.33608    -32172.40947  20500864.43447
   -161995.69105  23808381.89805    -42503.09445  23808389.36745
  0  7 10 12  8 30.0000000  0  6  1  7 11 16 20 25
   -272139.66806  23220974.83606    -94450.37145  23220984.25045
   -153108.16706  22817220.49206    -76031.51246  22817226.64546
    122313.13108  20786238.64108     58722.24647  20786243.41047
   -144194.70207  22232570.40607    -30688.00946  22232576.60546
   -100507.62108  20499589.22708    -37373.25847  20499594.26647
   -172302.84904  23806420.50004    -50534.62645  23806427.22745
  0  7 10 12  8 35.0000000  0  6  1  7 11 16 20 25
   -290882.67206  23217407.83606   -109055.24945  23217416.38345
   -162132.80006  22815503.16406    -83063.68346  22815508.71946
    130480.79908  20787792.59408     65086.65247  20787797.44547
   -159246.68407  22229705.75807    -42416.81046  22229711.86346
   -107125.42408  20498329.75808    -42529.98547  20498334.87947
   -182553.44305  23804470.33605    -58522.10445  23804476.81645
  0  7 10 12  8 40.0000000  0  6  1  7 11 16 20 25
   -309574.40206  23213851.08606   -123620.17946  23213859.94946
   -171097.91106  22813797.21106    -90049.49046  22813803.36346
    138705.55608  20789357.97708     71495.54347  20789362.79347
   -174245.99706  22226851.86706    -54104.57246  22226858.19546
   -113686.80008  20497081.29708    -47642.74347  20497086.34847
   -192747.56405  23802530.03105    -66465.54645  23802538.02745
  0  7 10 12  8 45.0000000  0  6  1  7 11 16 20 25
   -328216.67505  23210302.96905   -138146.57346  23210312.32446
   -180005.29506  22812102.14106    -96990.30746  22812108.19946
    146985.61708  20790933.60908     77947.52747  20790938.47347
   -189194.39607  22224007.18007    -65752.67446  22224013.71946
   -120193.50508  20495843.00808    -52712.89547  20495847.89547
   -202887.03405  23800600.57805    -74366.37245  23800609.69945
  0  7 10 12  8 50.0000000  0  6  1  7 11 16 20 25
   -346809.28905  23206765.84405   -152634.27645  23206774.81345
   -188854.78206  22810418.05506   -103886.00046  22810423.97346
    155321.09508  20792519.79708     84442.70147  20792524.66047
   -204091.75106  22221172.32806    -77360.98646  22221178.57446
   -126645.44208  20494615.31308    -57740.36947  20494620.09447
   -212971.74305  23798681.76605    -82224.55345  23798690.04345
  0  7 10 12  8 55.0000000  0  6  1  7 11 16 20 25
   -365353.57805  23203236.34405   -167084.33345  23203245.53545
   -197647.77806  22808744.99206   -110737.68046  22808751.18046
    163710.68308  20794116.27308     90980.03547  20794121.06647
   -218939.36206  22218346.86706    -88930.52746  22218353.16046
   -133043.90908  20493397.87508    -62726.18347  20493402.49247
   -223002.93305  23796772.60205    -90041.06045  23796781.58245
  0  7 10 12  9  0.0000000  0  6  1  7 11 16 20 25
   -383849.37805  23199716.95305   -181496.60945  23199727.25845
   -206383.99506  22807082.50006   -117545.13446  22807088.67646
    172154.52608  20795723.15608     97559.63847  20795727.94947
   -233736.99706  22215530.63306   -100461.13646  22215537.23046
   -139388.74808  20492190.51608    -67670.20847  20492195.09847
   -232980.41205  23794874.25805    -97815.73445  23794883.36745
  0  7 10 12  9  5.0000000  0  6  1  7 11 16 20 25
   -402297.47105  23196206.46905   -195871.70545  23196216.03545
   -215064.26206  22805430.79706   -124308.97446  22805436.99646
    180651.81908  20797340.09408    104180.89747  20797344.77047
   -248485.50506  22212724.42206   -111953.46446  22212731.05546
   -145680.75208  20490993.22708    -72573.06147  20490997.82047
   -242905.02705  23792985.17205   -105549.19945  23792994.66845
  0  7 10 12  9 10.0000000  0  6  1  7 11 16 20 25
   -420699.37305  23192704.60905   -210210.81245  23192713.46145
   -223690.08506  22803789.47706   -131030.38346  22803795.86346
    189201.11108  20798966.96908    110842.67347  20798971.90247
   -263186.44406  22209927.09406   -123408.73846  22209933.39846
   -151921.38808  20489805.35908    -77435.88847  20489809.88347
   -252778.32205  23791106.50005   -113242.65345  23791114.95345
  0  7 10 12  9 15.0000000  0  6  1  7 11 16 20 25
   -439055.14105  23189211.49205   -224513.97145  23189220.67245
   -232261.60106  22802158.42206   -137709.48046  22802164.83246
    197802.23708  20800603.74208    117544.84247  20800608.78147
   -277839.87006  22207138.21906   -134826.98346  22207145.21946
   -158110.82908  20488627.61708    -82258.82147  20488632.10547
   -262600.29005  23789237.91405   -120896.09645  23789246.63745
  0  7 10 12  9 20.0000000  0  6  1  7 11 16 20 25
   -457365.50205  23185726.85205   -238781.72445  23185735.12945
   -240779.47906  22800536.92206   -144346.79046  22800542.91046
    206454.45908  20802250.22708    124286.82447  20802255.34847
   -292446.49806  22204358.96106   -146208.74946  22204366.03146
   -164249.74208  20487459.60908    -87042.38347  20487464.25047
   -272371.79705  23787377.89105   -128510.24945  23787386.67245
  0  7 10 12  9 25.0000000  0  6  1  7 11 16 20 25
   -475630.60505  23182250.54705   -253014.22246  23182260.40646
   -249243.90706  22798926.52306   -150942.44546  22798932.44146
    215157.61808  20803906.25008    131068.49847  20803911.28947
   -307006.54706  22201588.14106   -157554.22346  22201595.52746
   -170338.33008  20486300.73408    -91786.73647  20486305.44547
   -282092.92705  23785528.40605   -136085.15245  23785536.27345
  0  7 10 12  9 30.0000000  0  6  1  7 11 16 20 25
   -493850.78706  23178783.64806   -267211.71846  23178793.21546
   -257655.21706  22797326.08606   -157496.69446  22797332.01646
    223911.38808  20805572.12508    137889.61947  20805577.18847
   -321520.26006  22198826.09406   -168863.57946  22198833.34046
   -176376.90008  20485152.00008    -96492.11247  20485156.67647
   -291763.88204  23783687.43804   -143620.92345  23783696.57045
  0  7 10 12  9 35.0000000  0  6  1  7 11 16 20 25
   -512027.53706  23175325.28906   -281375.38446  23175334.69146
   -266014.88506  22795735.32806   -164010.72446  22795740.70746
    232714.24308  20807247.35208    144748.98347  20807252.27347
   -335989.19806  22196072.92206   -180138.06046  22196080.05146
   -182366.95308  20484011.73408   -101159.67947  20484016.17647
   -301386.28405  23781856.25805   -151118.87345  23781864.92245
  0  7 10 12  9 40.0000000  0  6  1  7 11 16 20 25
   -530161.00506  23171874.30506   -295505.32546  23171884.21146
   -274323.07807  22794154.32007   -170484.63146  22794160.06346
    241566.03408  20808931.61708    151646.47947  20808936.59847
   -350413.52606  22193328.05506   -191377.78846  22193334.85246
   -188308.67608  20482881.37508   -105789.58847  20482885.94547
   -310960.25504  23780035.14804   -158579.09245  23780042.59445
  0  7 10 12  9 45.0000000  0  6  1  7 11 16 20 25
   -548251.69106  23168432.00006   -309601.92346  23168441.63746
   -282580.28206  22792583.05506   -176918.82646  22792588.90246
    250466.25208  20810625.28908    158581.71147  20810630.32847
   -364793.63906  22190591.21106   -202583.04946  22190598.18846
   -194202.56808  20481759.64108   -110382.22847  20481764.14147
   -320486.23805  23778222.38305   -166001.91545  23778230.66045
  0  7 10 12  9 50.0000000  0  6  1  7 11 16 20 25
   -566299.80805  23164996.47705   -323665.35646  23165005.73846
   -290786.68906  22791021.41406   -183313.41646  22791027.76646
    259414.64908  20812328.36708    165554.47947  20812333.38347
   -379129.86907  22187863.36707   -213754.12846  22187870.09446
   -200048.85208  20480647.11708   -114937.76647  20480651.54747
   -329964.59705  23776418.16405   -173387.62145  23776426.25445
  0  7 10 12  9 55.0000000  0  6  1  7 11 16 20 25
   -584306.91306  23161570.32006   -337696.83346  23161580.42646
   -298943.94806  22789468.99206   -189669.70346  22789474.78146
    268409.64908  20814039.78908    172563.55247  20814044.82847
   -393423.77206  22185143.53106   -224892.22046  22185150.12946
   -205849.09808  20479543.46908   -119457.43347  20479547.84047
   -339396.73005  23774623.68805   -180737.30245  23774631.67245
  0  7 10 12 10  0.0000000  0  6  1  7 11 16 20 25
   -602273.90706  23158151.44506   -351697.04846  23158161.25846
   -307052.79705  22787925.32805   -195988.27646  22787930.96546
    277450.38308  20815760.08608    179608.26747  20815765.13747
   -407676.21405  22182431.60905   -235998.01246  22182438.85546
   -211604.18507  20478448.39107   -123941.91247  20478452.70347
   -348783.51405  23772837.52305   -188051.69145  23772844.26245
  0  7 10 12 10  5.0000000  0  6  1  7 11 16 20 25
   -620198.92706  23154740.92206   -365664.56146  23154750.57046
   -315111.60106  22786392.53106   -202267.83445  22786398.93045
    286538.63708  20817489.64808    186690.01947  20817494.69947
   -421885.40206  22179727.28106   -247070.09246  22179734.73846
   -217312.33008  20477362.11708   -128389.80847  20477366.46547
   -358123.22305  23771060.00005   -195329.33645  23771066.19945
  0  7 10 12 10 10.0000000  0  6  1  7 11 16 20 25
   -638084.05706  23151336.83606   -379601.00646  23151346.43846
   -323122.40106  22784867.96106   -208510.00945  22784873.66845
    295672.36208  20819227.74208    193807.19547  20819232.94547
   -436053.28306  22177031.15606   -258109.99646  22177037.63746
   -222975.52608  20476284.30508   -132802.68747  20476288.57047
   -367417.83505  23769290.78905   -202571.87345  23769298.31645
  0  7 10 12 10 15.0000000  0  6  1  7 11 16 20 25
   -655928.90706  23147941.37506   -393506.02746  23147950.85946
   -331084.55106  22783352.36706   -214714.32045  22783358.15645
    304851.90808  20820974.58608    200960.08647  20820979.78947
   -450179.69906  22174343.00806   -269117.58146  22174349.89146
   -228593.49208  20475215.06308   -137180.32547  20475219.41047
   -376667.03705  23767531.57805   -209779.01545  23767539.22345
  0  7 10 12 10 20.0000000  0  6  1  7 11 16 20 25
   -673734.99406  23144552.57006   -407380.86346  23144562.35946
   -338999.92506  22781846.51606   -220882.15145  22781852.45745
    314075.75408  20822729.75808    208147.49447  20822735.07847
   -464265.92206  22171662.43806   -280093.86046  22171669.75446
   -234167.66908  20474154.60208   -141523.84147  20474159.11347
   -385872.31605  23765779.43005   -216951.93045  23765787.14545
  0  7 10 12 10 25.0000000  0  6  1  7 11 16 20 25
   -691502.10506  23141172.40606   -421225.31746  23141182.04346
   -346867.93406  22780349.34406   -227013.06545  22780354.82845
    323344.12708  20824493.62508    215369.59947  20824498.79347
   -478311.99006  22168989.35906   -291038.80846  22168995.78146
   -239697.87008  20473102.23408   -145833.07547  20473106.65247
   -395033.38405  23764036.10905   -224090.44145  23764044.57445
  0  7 10 12 10 30.0000000  0  6  1  7 11 16 20 25
   -709230.28206  23137797.89806   -435039.43645  23137806.15245
   -354689.02806  22778860.97706   -233107.41545  22778866.74245
    332656.92708  20826265.68808    222626.31947  20826270.84447
   -492317.75406  22166324.53906   -301952.36346  22166330.82046
   -245184.19008  20472058.14808   -150108.12147  20472062.78947
   -404150.44405  23762300.55505   -231194.63245  23762309.40645
  0  7 10 12 10 35.0000000  0  6  1  7 11 16 20 25
   -726920.49906  23134431.83606   -448823.96846  23134440.28946
   -362463.96005  22777381.50805   -239165.77245  22777385.31645
    342013.19108  20828046.22708    229916.91147  20828051.37147
   -506284.12006  22163666.69506   -312835.23146  22163672.73046
   -250627.56408  20471022.35908   -154349.69947  20471026.81347
   -413224.28305  23760575.00005   -238265.11645  23760581.38745
  0  7 10 12 10 40.0000000  0  6  1  7 11 16 20 25
   -744572.82406  23131072.89106   -462578.99846  23131082.59846
   -370192.83605  22775910.06305   -245188.26745  22775915.55945
    351412.80508  20829834.86708    237241.27647  20829839.93047
   -520211.40805  22161016.64105   -323687.65446  22161023.18046
   -256028.10507  20469994.49207   -158557.90647  20469998.94547
   -422255.08205  23758855.97705   -245302.09745  23758862.23445
  0  7 10 12 10 45.0000000  0  6  1  7 11 16 20 25
   -762188.27006  23127720.75806   -476305.28846  23127729.93846
   -377876.60505  22774448.35905   -251175.62445  22774455.03945
    360854.78108  20831631.67208    244598.65047  20831636.73447
   -534100.66206  22158373.43806   -334510.43245  22158380.48445
   -261386.84908  20468974.77308   -162733.53847  20468979.22747
   -431243.87205  23757145.46105   -252306.35345  23757152.56645
  0  7 10 12 10 50.0000000  0  6  1  7 11 16 20 25
   -779767.07806  23124375.75006   -490003.03346  23124384.76646
   -385515.57406  22772994.30506   -257128.07945  22773001.03145
    370338.83008  20833436.52308    251988.80847  20833441.60947
   -547951.89606  22155737.20306   -345303.58446  22155743.71946
   -266703.93608  20467963.16408   -166876.72247  20467967.72347
   -440190.65605  23755442.33605   -259277.85145  23755448.87545
  0  7 10 12 10 55.0000000  0  6  1  7 11 16 20 25
   -797309.02106  23121037.52306   -503672.03346  23121046.36346
   -393109.60506  22771550.07806   -263045.51545  22771556.25445
    379865.17908  20835249.34408    259411.92647  20835254.46547
   -561765.02206  22153109.50006   -356067.04846  22153115.81646
   -271979.28408  20466959.03108   -170987.38847  20466963.87147
   -449095.61705  23753748.79705   -266216.77045  23753755.35945
  0  7 10 12 11  0.0000000  0  6  1  7 11 16 20 25
   -814814.03906  23117706.49206   -517312.26046  23117714.69946
   -400658.62306  22770113.14106   -268927.86645  22770119.10545
    389433.81208  20837070.14108    266867.99147  20837075.29747
   -575539.90006  22150487.69506   -366800.69246  22150493.61346
   -277212.82008  20465963.37508   -175065.46947  20465968.16847
   -457958.54505  23752062.08605   -273122.91145  23752068.84845
  0  7 10 12 11  5.0000000  0  6  1  7 11 16 20 25
   -832282.71906  23114381.46106   -530924.17346  23114390.51246
   -408163.04605  22768685.34405   -274775.47845  22768691.40245
    399044.27907  20838898.72707    274356.66747  20838903.76647
   -589277.23506  22147874.04706   -377505.12046  22147880.82046
   -282405.07208  20464975.07808   -179111.37647  20464979.93047
   -466779.90605  23750383.28905   -279996.68645  23750388.65645
  0  7 10 12 11 10.0000000  0  6  1  7 11 16 20 25
   -849715.75706  23111064.46906   -544508.32346  23111073.26246
   -415623.73205  22767265.63305   -280588.96945  22767271.97345
    408695.73208  20840735.39108    281877.27847  20840740.45347
   -602977.75106  22145266.38306   -388180.83546  22145272.84046
   -287556.84008  20463994.85208   -183125.73347  20463999.52747
   -475560.49105  23748711.63305   -286838.67545  23748718.83245
  0  7 10 12 11 15.0000000  0  6  1  7 11 16 20 25
   -867113.21505  23107753.76605   -558064.74746  23107762.99246
   -423040.54905  22765854.39805   -286368.28245  22765860.87945
    418388.13707  20842579.78107    289429.80047  20842585.24247
   -616641.43006  22142666.34406   -398827.83246  22142673.12946
   -292668.16207  20463022.09407   -187108.56847  20463026.85247
   -484300.29004  23747048.67204   -293648.91245  23747056.44545
  0  7 10 12 11 20.0000000  0  6  1  7 11 16 20 25
   -884475.30406  23104449.85206   -571593.58045  23104459.34845
   -430413.99505  22764451.09405   -292113.82045  22764456.61345
    428121.26108  20844431.98408    297014.05446  20844437.48046
   -630268.35006  22140073.03906   -409446.16146  22140079.68446
   -297739.24907  20462056.97707   -191060.05247  20462061.54747
   -492999.63104  23745392.86704   -300427.60845  23745400.39545
  0  7 10 12 11 25.0000000  0  6  1  7 11 16 20 25
   -901803.38906  23101152.39806   -585095.93146  23101162.45746
   -437745.30605  22763055.69505   -297826.53145  22763061.90645
    437893.76708  20846291.71108    304628.99247  20846297.20747
   -643860.06206  22137486.78906   -420037.10546  22137492.84846
   -302771.45108  20461099.35908   -194981.24547  20461104.09447
   -501659.74305  23743745.40605   -307175.71945  23743752.21545
  0  7 10 12 11 30.0000000  0  6  1  7 11 16 20 25
   -919096.51906  23097861.57806   -598571.07146  23097870.65246
   -445033.67306  22761668.73406   -303505.78946  22761674.69946
    447706.57807  20848158.87507    312275.32247  20848164.43047
   -657415.45106  22134907.21106   -430599.72546  22134913.76246
   -307763.86808  20460149.66408   -198871.43447  20460154.49247
   -510279.80505  23742104.79705   -313892.64345  23742112.75845
  0  7 10 12 11 35.0000000  0  6  1  7 11 16 20 25
   -936354.17506  23094577.85206   -612018.58446  23094587.14846
   -452278.16706  22760290.04706   -309150.89045  22760297.38745
    457560.11307  20850033.78107    319953.39047  20850039.17247
   -670934.54606  22132334.61706   -441134.09946  22132341.46146
   -312715.93507  20459207.30507   -202730.19247  20459212.25047
   -518859.17605  23740472.35205   -320577.82245  23740480.52345
  0  7 10 12 11 40.0000000  0  6  1  7 11 16 20 25
   -953578.00106  23091299.75806   -625439.73346  23091308.79746
   -459480.83506  22758919.40606   -314763.34546  22758926.60546
    467452.84708  20851916.54708    327662.00347  20851922.05547
   -684418.22806  22129768.53106   -451640.86146  22129775.17646
   -317629.27808  20458272.21908   -206558.76847  20458277.10547
   -527399.59005  23738847.20305   -327232.66045  23738855.16445
  0  7 10 12 11 45.0000000  0  6  1  7 11 16 20 25
   -970767.91806  23088029.10906   -638834.43446  23088038.55946
   -466641.45506  22757556.98406   -320343.03546  22757564.30146
    477384.74808  20853806.62508    335401.14047  20853811.99247
   -697866.95306  22127209.31306   -462120.36946  22127215.87546
   -322503.93808  20457344.73408   -210357.20247  20457349.63347
   -535900.99305  23737229.25805   -333857.13745  23737237.64145
  0  7 10 12 11 50.0000000  0  6  1  7 11 16 20 25
   -987924.06306  23084763.78906   -652202.82146  23084773.10946
   -473760.15606  22756202.48406   -325890.06046  22756209.53146
    487355.68908  20855703.96908    343170.69647  20855709.09047
   -711280.73306  22124656.90606   -472572.64346  22124662.81346
   -327339.95508  20456424.29708   -214125.51647  20456429.11347
   -544363.41805  23735619.66405   -340451.21645  23735627.97745
  0  7 10 12 11 55.0000000  0  6  1  7 11 16 20 25
  -1005047.07006  23081505.80506   -665545.37346  23081515.31346
   -480837.61406  22754855.63306   -331404.96146  22754862.91446
    497365.02508  20857608.75808    350970.17447  20857613.86747
   -724660.17706  22122110.85206   -482998.17246  22122116.77046
   -332138.00908  20455511.25808   -217864.25047  20455515.98047
   -552787.52105  23734016.68005   -347015.42645  23734024.87545
  0  7 10 12 12  0.0000000  0  6  1  7 11 16 20 25
  -1022137.39406  23078253.50806   -678862.45946  23078263.03946
   -487874.33206  22753516.31306   -336888.12446  22753522.92246
    507412.22908  20859520.54708    358799.15747  20859525.90247
   -738005.80106  22119571.18006   -493397.34046  22119577.40246
   -336898.63808  20454605.31308   -221573.82647  20454610.15247
   -561173.81105  23732420.09405   -353550.18345  23732428.43045
  0  7 10 12 12  5.0000000  0  6  1  7 11 16 20 25
  -1039194.61106  23075007.47706   -692153.75146  23075016.78546
   -494869.82706  22752184.94506   -342339.15446  22752191.35546
    517497.78908  20861439.90608    366658.02547  20861445.16847
   -751317.13106  22117037.96906   -503769.77846  22117044.29746
   -341621.35308  20453706.53108   -225253.85647  20453711.34847
   -569521.96905  23730832.08605   -360055.24145  23730841.00845
  0  7 10 12 12 10.0000000  0  6  1  7 11 16 20 25
  -1056219.36106  23071767.18806   -705419.75046  23071776.46146
   -501824.73206  22750861.60906   -347758.55846  22750867.93846
    527621.04707  20863366.10207    374546.27447  20863371.39847
   -764594.78206  22114511.26606   -514115.98346  22114517.43046
   -346306.81308  20452815.02308   -228904.85647  20452819.93447
   -577832.42705  23729250.29705   -366530.88645  23729258.75045
  0  7 10 12 12 15.0000000  0  6  1  7 11 16 20 25
  -1073211.76906  23068534.43806   -718660.55046  23068543.25446
   -508739.14306  22749546.16406   -353146.39346  22749552.15246
    537781.87708  20865299.75808    382463.80247  20865304.85547
   -777838.89306  22111991.04706   -524436.05446  22111996.96546
   -350955.12908  20451930.52308   -232526.91847  20451935.23447
   -586105.41305  23727675.89105   -372977.33745  23727683.69945
  0  7 10 12 12 20.0000000  0  6  1  7 11 16 20 25
  -1090172.42306  23065306.39106   -731876.60746  23065315.26646
   -515613.75806  22748237.90606   -358503.23446  22748243.70746
    547979.61208  20867240.53108    390410.08547  20867245.69947
   -791050.01506  22109477.18006   -534730.43146  22109483.43846
   -355566.95608  20451052.81308   -236120.54347  20451057.55947
   -594341.55405  23726108.96105   -379395.09145  23726116.50045
  0  7 10 12 12 25.0000000  0  6  1  7 11 16 20 25
  -1107101.11806  23062085.58606   -745067.76546  23062094.22746
   -522448.32106  22746937.12506   -363828.86146  22746943.05546
    558214.44308  20869188.00808    398385.26947  20869193.00047
   -804228.07406  22106969.57006   -544999.03946  22106975.65246
   -360142.08708  20450182.20308   -239685.57847  20450187.03147
   -602540.55205  23724548.53105   -385783.90245  23724555.77745
  0  7 10 12 12 30.0000000  0  6  1  7 11 16 20 25
  -1123998.19406  23058869.71106   -758234.29546  23058878.50446
   -529243.13806  22745644.12506   -369123.52746  22745650.48846
    568486.09908  20871142.53908    406389.15446  20871147.53146
   -817373.31506  22104468.09406   -555242.06146  22104474.34046
   -364680.81308  20449318.58608   -243222.24347  20449323.27347
   -610702.77305  23722995.28105   -392144.06845  23723002.37545
  0  7 10 12 12 35.0000000  0  6  1  7 11 16 20 25
  -1140864.21806  23055659.99206   -771376.60346  23055668.87946
   -535998.82806  22744358.69506   -374387.69846  22744364.62546
    578793.91408  20873104.00808    414421.21546  20873109.15246
   -830486.41506  22101972.82806   -565460.03946  22101979.29746
   -369183.78208  20448461.53908   -246731.04247  20448466.16847
   -618828.76105  23721448.94505   -398475.99145  23721455.32045
  0  7 10 12 12 40.0000000  0  6  1  7 11 16 20 25
  -1157699.32906  23052457.01606   -784494.81146  23052465.84446
   -542715.58406  22743080.77306   -379621.54246  22743087.19546
    589137.77208  20875072.59408    422481.35946  20875077.69146
   -843567.43006  22099483.71906   -575653.01646  22099489.89546
   -373651.09008  20447611.42208   -250212.05447  20447615.94547
   -626918.75005  23719908.82805   -404779.87545  23719915.47345
  0  7 10 12 12 45.0000000  0  6  1  7 11 16 20 25
  -1174504.21706  23049258.47706   -797589.47846  23049267.55146
   -549394.02006  22741809.93006   -384825.51946  22741816.23446
    599516.96708  20877047.51608    430569.03347  20877052.81347
   -856617.09006  22097000.32806   -585821.56646  22097006.64546
   -378083.43608  20446767.99208   -253665.82647  20446772.49247
   -634973.25605  23718377.06305   -411056.08745  23718384.21545
  0  7 10 12 12 50.0000000  0  6  1  7 11 16 20 25
  -1191279.04206  23046066.35906   -810660.72946  23046075.89146
   -556034.37206  22740546.14106   -389999.82046  22740552.16446
    609931.27708  20879029.53108    438684.07647  20879034.79347
   -869635.61206  22094523.15606   -595965.85946  22094529.46146
   -382481.06508  20445931.15608   -257092.54547  20445935.68047
   -642992.70305  23716851.45305   -417304.99745  23716858.28545
  0  7 10 12 12 55.0000000  0  6  1  7 11 16 20 25
  -1208024.58406  23042880.46106   -823709.17546  23042889.81646
   -562637.31406  22739289.36706   -395144.96946  22739295.73046
    620380.00408  20881017.70308    446825.93647  20881022.87147
   -882623.69207  22092051.14807   -606086.43146  22092057.59446
   -386844.65108  20445100.89108   -260492.73747  20445105.43847
   -650977.67105  23715331.99205   -423527.02045  23715339.52045
  0  7 10 12 13  0.0000000  0  6  1  7 11 16 20 25
  -1224740.39206  23039699.41406   -836734.44946  23039708.92246
   -569202.40706  22738040.27306   -400260.62046  22738046.89546
    630863.53208  20883012.78108    454994.91747  20883017.97347
   -895580.87907  22089585.45307   -616182.92446  22089591.84046
   -391173.82508  20444277.07808   -263866.11547  20444281.55547
   -658927.78905  23713818.28105   -429721.87745  23713825.57445
  0  7 10 12 13  5.0000000  0  6  1  7 11 16 20 25
  -1241426.99606  23036523.95306   -849736.95346  23036532.80546
   -575730.26406  22736797.93006   -405347.25446  22736804.38746
    641381.26308  20885014.11708    463190.54147  20885019.26247
   -908507.78507  22087125.93807   -626255.82446  22087131.68046
   -395469.15308  20443459.79708   -267213.11847  20443464.25047
   -666843.47805  23712312.30505   -435889.92145  23712319.66845
  0  7 10 12 13 10.0000000  0  6  1  7 11 16 20 25
  -1258083.88906  23033354.20306   -862716.32346  23033362.86746
   -582220.35306  22735562.94506   -410404.47546  22735569.63746
    651933.73408  20887022.18008    471413.23947  20887027.35947
   -921403.96707  22084671.96907   -636304.78346  22084678.18046
   -399730.10008  20442648.90608   -270533.33347  20442653.24247
   -674724.34705  23710812.25805   -442030.84145  23710819.35245
  0  7 10 12 13 15.0000000  0  6  1  7 11 16 20 25
  -1274712.96406  23030189.32806   -875674.00046  23030198.15646
   -588674.57906  22734334.57806   -415433.74346  22734341.14146
    662519.06208  20889036.65608    479661.53946  20889041.88346
   -934271.21207  22082223.14807   -646331.19446  22082229.46546
   -403958.50508  20441844.07008   -273828.18947  20441848.46547
   -682572.15705  23709318.59405   -448146.01945  23709325.39145
  0  7 10 12 13 20.0000000  0  6  1  7 11 16 20 25
  -1291314.44306  23027030.07006   -888610.17046  23027038.55946
   -595093.11006  22733113.42206   -420435.18646  22733119.90246
    673136.93308  20891057.16408    487935.19647  20891062.18047
   -947109.77307  22079780.21107   -656335.24946  22079786.17646
   -408154.69608  20441045.79708   -277097.94147  20441050.01647
   -690387.36405  23707832.33605   -454235.77345  23707840.07445
  0  7 10 12 13 25.0000000  0  6  1  7 11 16 20 25
  -1307887.81406  23023876.58606   -901524.44946  23023885.19146
   -601475.50606  22731898.57006   -425408.47746  22731905.23846
    683787.95108  20893083.83608    496234.68547  20893088.92247
   -959919.12007  22077342.29707   -666316.55646  22077348.67246
   -412318.09408  20440253.50808   -280342.14647  20440257.66847
   -698169.25405  23706350.99205   -460299.57145  23706359.50445
  0  7 10 12 13 30.0000000  0  6  1  7 11 16 20 25
  -1324433.55006  23020728.17206   -914417.19846  23020737.19946
   -607822.23106  22730691.04706   -430353.97246  22730697.85546
    694471.59008  20895116.90608    504559.59647  20895122.09847
   -972699.72207  22074910.34407   -676275.45046  22074916.56646
   -416449.25008  20439467.38308   -283561.22247  20439471.57847
   -705918.36505  23704876.85905   -466337.82945  23704884.19945
  0  7 10 12 13 35.0000000  0  6  1  7 11 16 20 25
  -1340951.46706  23017584.55506   -927288.26546  23017593.31346
   -614133.09606  22729490.05506   -435271.52746  22729496.19546
    705188.02108  20897156.33608    512910.05447  20897161.50447
   -985451.40807  22072483.90607   -686211.81646  22072489.90646
   -420547.97308  20438687.28908   -286755.02747  20438691.42647
   -713634.50405  23703408.05505   -472350.38145  23703414.99645
  0  7 10 12 13 40.0000000  0  6  1  7 11 16 20 25
  -1357442.65106  23014446.07806   -940138.50346  23014454.62546
   -620409.15606  22728295.75006   -440161.96646  22728301.99646
    715936.14208  20899201.44508    521285.21147  20899206.69547
   -998175.31407  22070062.49207   -696126.52846  22070068.69146
   -424615.34308  20437913.42208   -289924.40347  20437917.60547
   -721318.74705  23701945.90605   -478338.08645  23701953.15245
  0  7 10 12 13 45.0000000  0  6  1  7 11 16 20 25
  -1373906.13006  23011313.45306   -952967.14546  23011322.24646
   -626649.52406  22727108.21906   -445024.58546  22727114.33646
    726716.90508  20901253.11708    529685.79247  20901258.27347
  -1010870.47406  22067646.82006   -706018.83846  22067652.68046
   -428650.42208  20437145.60208   -293068.61747  20437149.76247
   -728970.11505  23700489.53905   -484300.17145  23700497.04345
  0  7 10 12 13 50.0000000  0  6  1  7 11 16 20 25
  -1390343.26206  23008185.85906   -965775.26546  23008194.82846
   -632855.50706  22725927.41406   -449860.40946  22725933.59046
    737528.90508  20903310.43008    538110.71647  20903315.55147
  -1023538.21206  22065235.93806   -715889.79046  22065242.06646
   -432654.56208  20436383.61708   -296188.72347  20436387.81347
   -736590.10205  23699040.34405   -490237.81845  23699047.89545
  0  7 10 12 13 55.0000000  0  6  1  7 11 16 20 25
  -1406754.29306  23005062.80506   -978563.03446  23005071.72746
   -639027.33306  22724753.02306   -454669.61346  22724759.15246
    748371.89908  20905373.86708    546559.80147  20905378.97747
  -1036178.82107  22062830.82007   -725739.60846  22062837.06646
   -436628.02308  20435627.51608   -299284.92347  20435631.69947
   -744178.93605  23697595.11705   -496151.18345  23697602.43445
  0  7 10 12 14  0.0000000  0  6  1  7 11 16 20 25
  -1423138.97206  23001944.67206   -991330.27546  23001953.59446
   -645164.79506  22723584.97706   -459452.05346  22723591.30546
    759246.19908  20907443.07808    555033.28247  20907448.12947
  -1048792.00507  22060430.31307   -735568.05746  22060436.40646
   -440570.51408  20434877.30508   -302356.98647  20434881.27747
   -751736.21505  23696157.29705   -502039.96345  23696165.24645
  0  7 10 12 14  5.0000000  0  6  1  7 11 16 20 25
  -1439497.37706  22998831.83606  -1004077.05946  22998840.55946
   -651267.96406  22722423.43006   -464207.75546  22722429.20746
    770151.59008  20909518.32008    563530.98247  20909523.28947
  -1061377.92306  22058035.48406   -745375.25546  22058041.53146
   -444482.17708  20434132.78108   -305405.03047  20434136.83647
   -759262.01905  23694725.36705   -507904.18745  23694732.84845
  0  7 10 12 14 10.0000000  0  6  1  7 11 16 20 25
  -1455829.28606  22995723.45306  -1016803.19246  22995732.37546
   -657336.60506  22721268.75806   -468936.56046  22721274.93446
    781088.30808  20911599.60208    572053.09747  20911604.62947
  -1073936.31207  22055645.79707   -755160.98646  22055651.91446
   -448362.78308  20433394.46908   -308428.87447  20433398.57047
   -766756.20805  23693299.40605   -513743.81045  23693305.16045
  0  7 10 12 14 15.0000000  0  6  1  7 11 16 20 25
  -1472134.54306  22992620.78906  -1029508.54446  22992629.47746
   -663370.58106  22720120.59406   -473638.35946  22720126.52346
    792056.55008  20913686.73408    580599.77247  20913691.82047
  -1086467.01007  22053261.08607   -764925.14846  22053267.36746
   -452212.15508  20432661.97708   -311428.38347  20432666.13747
   -774218.57405  23691878.74205   -519558.63845  23691884.95345
  0  7 10 12 14 20.0000000  0  6  1  7 11 16 20 25
  -1488413.99706  22989523.20306  -1042193.78846  22989532.30146
   -669370.79606  22718978.94506   -478313.85046  22718984.71146
    803055.40908  20915779.82808    589170.30747  20915784.91447
  -1098970.89707  22050881.67207   -774668.42846  22050887.83646
   -456031.20508  20431935.27308   -314404.26047  20431939.44547
   -781650.12805  23690464.39805   -525349.42645  23690471.35245
  0  7 10 12 14 25.0000000  0  6  1  7 11 16 20 25
  -1504668.17906  22986430.11706  -1054859.35046  22986438.88746
   -675337.70906  22717843.50006   -482963.41246  22717849.20746
    814084.37608  20917878.68808    597764.29447  20917883.91447
  -1111448.50307  22048507.08607   -784391.22246  22048513.55546
   -459820.45508  20431214.17208   -317356.91747  20431218.35547
   -789051.25605  23689056.05505   -531116.51445  23689063.61745
  0  7 10 12 14 30.0000000  0  6  1  7 11 16 20 25
  -1520896.37206  22983341.88306  -1067504.66546  22983350.95746
   -681270.62406  22716714.61706   -487586.47646  22716720.61746
    825144.14708  20919983.20308    606382.28747  20919988.59447
  -1123899.04007  22046138.00807   -794092.92446  22046144.45346
   -463579.17208  20430498.82808   -320285.78047  20430503.12947
   -796421.29805  23687653.63305   -536859.38145  23687659.72745
  0  7 10 12 14 35.0000000  0  6  1  7 11 16 20 25
  -1537099.10206  22980258.35206  -1080130.13846  22980266.98046
   -687170.08006  22715591.46906   -492183.47046  22715597.48046
    836234.11808  20922093.61708    615023.81047  20922099.07847
  -1136323.08306  22043773.82806   -803773.99046  22043780.27346
   -467307.91808  20429789.40608   -323191.29147  20429793.70747
   -803760.70805  23686258.03905   -542578.35545  23686265.16845
  0  7 10 12 14 40.0000000  0  6  1  7 11 16 20 25
  -1553276.38406  22977179.97706  -1092735.77746  22977188.61746
   -693036.08406  22714475.75006   -496754.37346  22714481.77346
    847354.29808  20924209.67208    623688.87947  20924215.18047
  -1148720.68107  22041414.78907   -813434.44046  22041421.41046
   -471006.68308  20429085.63308   -326073.44147  20429089.92247
   -811069.58205  23684866.16405   -548273.55945  23684872.90245
  0  7 10 12 14 45.0000000  0  6  1  7 11 16 20 25
  -1569429.34005  22974105.93805  -1105322.42745  22974114.91845
   -698869.77506  22713365.60906   -501300.10846  22713371.77346
    858503.55907  20926331.32007    632376.61646  20926336.60546
  -1161093.00407  22039060.25007   -823075.20746  22039067.02346
   -474676.66908  20428387.04708   -328933.17047  20428391.24247
   -818348.94004  23683480.99204   -553945.75645  23683488.16845
  0  7 10 12 14 50.0000000  0  6  1  7 11 16 20 25
  -1585556.51105  22971036.96105  -1117889.00445  22971046.05945
   -704669.72506  22712261.70306   -505819.55546  22712267.89146
    869683.32507  20928458.58607    641088.12446  20928463.95346
  -1173438.60006  22036710.68806   -832695.12146  22036717.09846
   -478316.41408  20427694.39808   -331769.33247  20427698.61747
   -825597.42503  23682102.13303   -559593.89745  23682107.84045
  0  7 10 12 14 55.0000000  0  6  1  7 11 16 20 25
  -1601659.23906  22967972.68006  -1130436.55546  22967982.28146
   -710437.22106  22711163.99206   -510313.68446  22711169.85246
    880892.30908  20930591.75808    649822.39746  20930597.09046
  -1185758.74607  22034366.57007   -842295.21846  22034373.03946
   -481927.19508  20427007.23408   -334582.92547  20427011.39547
   -832816.33205  23680728.02305   -565219.00645  23680734.80945
  0  7 10 12 15  0.0000000  0  6  1  7 11 16 20 25
  -1617737.66906  22964913.71106  -1142965.18446  22964923.16046
   -716172.45306  22710072.63306   -514782.69846  22710078.90246
    892130.29608  20932730.50008    658579.25846  20932735.82046
  -1198053.66807  22032026.87507   -851875.66946  22032033.23846
   -485509.24308  20426325.63308   -337374.12747  20426329.73447
   -840005.74305  23679360.10905   -570821.15645  23679365.34845
  0  7 10 12 15  5.0000000  0  6  1  7 11 16 20 25
  -1633791.15006  22961858.07006  -1155474.36346  22961867.44946
   -721874.76706  22708987.79706   -519226.05746  22708994.06646
    903397.94108  20934874.47708    667359.23147  20934879.77347
  -1210322.70207  22029691.95307   -861435.94746  22029698.37546
   -489061.87708  20425649.50808   -340142.40647  20425653.43447
   -847165.06705  23677997.22705   -576399.83945  23678004.33245
  0  7 10 12 15 10.0000000  0  6  1  7 11 16 20 25
  -1649819.30705  22958808.58605  -1167963.78946  22958817.84846
   -727543.82006  22707908.96906   -523643.49346  22707914.84046
    914695.54608  20937024.41408    676162.55546  20937029.45346
  -1222565.47107  22027362.23407   -870975.75246  22027368.71546
   -492584.78108  20424979.19508   -342887.51847  20424983.18047
   -854293.92605  23676640.88305   -581954.78345  23676648.11745
  0  7 10 12 15 15.0000000  0  6  1  7 11 16 20 25
  -1665823.63006  22955762.89106  -1180434.66646  22955771.55546
   -733180.99506  22706836.29706   -528036.09446  22706842.32046
    926021.72708  20939179.48408    684988.13847  20939184.64147
  -1234783.37407  22025037.34407   -880496.17946  22025044.21546
   -496079.35408  20424314.28908   -345610.55747  20424318.34447
   -861393.75605  23675289.89105   -587487.08345  23675297.68845
  0  7 10 12 15 20.0000000  0  6  1  7 11 16 20 25
  -1681803.83706  22952721.55506  -1192886.74946  22952729.87946
   -738786.12806  22705769.52306   -532403.73446  22705775.60546
    937376.64008  20941340.40608    693836.11147  20941345.53947
  -1246976.22507  22022717.03107   -889997.08646  22022723.80546
   -499545.36308  20423654.66408   -348311.34147  20423658.78947
   -868464.38705  23673944.38305   -592996.63445  23673951.52345
  0  7 10 12 15 25.0000000  0  6  1  7 11 16 20 25
  -1697759.98306  22949685.77306  -1205320.07846  22949694.16846
   -744359.16406  22704708.88306   -536746.35346  22704715.11746
    948760.25508  20943506.81308    702706.46447  20943511.82847
  -1259144.07107  22020401.71907   -899478.51746  22020408.49246
   -502982.90008  20423000.48408   -350989.94047  20423004.63347
   -875505.92005  23672604.13305   -598483.49545  23672611.50845
  0  7 10 12 15 30.0000000  0  6  1  7 11 16 20 25
  -1713692.27806  22946654.05506  -1217734.81846  22946662.46146
   -749900.47706  22703654.45306   -541064.26446  22703660.55946
    960172.32108  20945678.28908    711598.98147  20945683.15247
  -1271287.15307  22018090.93807   -908940.65246  22018097.61746
   -506392.18308  20422351.61708   -353646.52047  20422355.63747
   -882518.40405  23671270.34405   -603947.75645  23671277.52045
  0  7 10 12 15 35.0000000  0  6  1  7 11 16 20 25
  -1729600.88606  22943626.08606  -1230131.08846  22943634.69146
   -755410.16506  22702605.78906   -545357.53446  22702612.10546
    971612.65408  20947855.23408    720513.51947  20947859.96947
  -1283405.58607  22015784.69507   -918383.57446  22015791.15246
   -509773.39708  20421708.60908   -356281.22847  20421712.62947
   -889502.09605  23669941.63305   -609389.56445  23669948.71545
  0  7 10 12 15 40.0000000  0  6  1  7 11 16 20 25
  -1745485.55906  22940603.26606  -1242508.71446  22940611.76646
   -760887.93706  22701563.72706   -549625.91446  22701570.09046
    983081.52608  20950038.00008    729450.29747  20950042.79347
  -1295499.19307  22013483.32807   -927807.14446  22013490.11346
   -513126.25908  20421070.40608   -358893.84547  20421074.35547
   -896456.66605  23668617.90605   -614808.68245  23668624.29345
  0  7 10 12 15 45.0000000  0  6  1  7 11 16 20 25
  -1761346.70606  22937585.28906  -1254868.00546  22937594.31646
   -766334.24706  22700527.03906   -553869.78446  22700533.41446
    994578.49208  20952225.71908    738408.97047  20952230.43047
  -1307568.35007  22011186.68007   -937211.66746  22011193.30146
   -516451.23808  20420437.43808   -361484.73347  20420441.36347
   -903382.53705  23667299.04705   -620205.45245  23667306.57445
  0  7 10 12 15 50.0000000  0  6  1  7 11 16 20 25
  -1777184.16906  22934571.44506  -1267208.84546  22934579.75846
   -771749.06606  22699496.82006   -558089.13046  22699503.77346
   1006103.62707  20954418.88307    747389.59246  20954423.71146
  -1319612.99206  22008894.96906   -946597.08646  22008901.32046
   -519748.24208  20419810.24208   -364053.81947  20419814.20347
   -910279.82405  23665987.89105   -625579.93945  23665993.73845
  0  7 10 12 15 55.0000000  0  6  1  7 11 16 20 25
  -1792998.51306  22931562.22706  -1279531.67346  22931570.10546
   -777132.56306  22698472.39806   -562284.05046  22698478.55146
   1017656.59008  20956617.27308    756391.88947  20956622.14847
  -1331633.47107  22006607.42207   -955963.67746  22006614.02046
   -523017.58308  20419187.95308   -366601.35247  20419191.99647
   -917148.59005  23664679.81305   -630932.20645  23664686.08245
  0  7 10 12 16  0.0000000  0  6  1  7 11 16 20 25
  -1808789.76406  22928557.14806  -1291836.51346  22928565.19146
   -782485.20306  22697453.80506   -566454.93446  22697460.29746
   1029237.07308  20958820.90608    765415.62947  20958825.79347
  -1343630.03506  22004324.11706   -965311.63346  22004330.66846
   -526259.58708  20418571.29708   -369127.58647  20418575.56347
   -923989.21405  23663377.71105   -636262.56445  23663384.27345
  0  7 10 12 16  5.0000000  0  6  1  7 11 16 20 25
  -1824558.18406  22925556.19506  -1304123.56446  22925564.80146
   -787807.01706  22696440.92206   -570601.80246  22696447.37946
   1040844.94108  20961029.91408    774460.71647  20961034.74247
  -1355602.74107  22002045.81307   -974641.01446  22002052.82446
   -529474.34108  20417959.35908   -371632.58947  20417963.81347
   -930801.93905  23662081.34405   -641571.15145  23662088.17645
  0  7 10 12 16 10.0000000  0  6  1  7 11 16 20 25
  -1840304.24105  22922559.71905  -1316393.17946  22922568.27746
   -793098.61706  22695434.22706   -574725.11946  22695440.76646
   1052479.60808  20963243.89108    783526.68547  20963248.76647
  -1367552.35207  21999772.19507   -983952.39246  21999779.25446
   -532662.47708  20417352.53908   -374116.84947  20417356.81647
   -937587.24705  23660790.48405   -646858.37145  23660797.87145
  0  7 10 12 16 15.0000000  0  6  1  7 11 16 20 25
  -1856027.34905  22919567.79705  -1328644.91245  22919575.74645
   -798359.30606  22694432.95306   -578824.35846  22694439.44546
   1064141.79007  20965462.88307    792614.09946  20965467.46546
  -1379478.03507  21997502.63307   -993245.11046  21997509.43046
   -535823.30808  20416750.97708   -376579.82747  20416755.31347
   -944344.46105  23659504.27305   -652123.71445  23659510.56645
  0  7 10 12 16 20.0000000  0  6  1  7 11 16 20 25
  -1871727.19705  22916580.42205  -1340878.51845  22916588.59445
   -803588.79506  22693437.72706   -582899.28346  22693444.11346
   1075831.64107  20967687.67207    801723.07246  20967692.48846
  -1391379.55507  21995238.08607  -1002519.00346  21995244.88346
   -538956.51708  20416154.78908   -379021.28147  20416159.32447
   -951073.27505  23658223.84405   -657366.93445  23658230.55945
  0  7 10 12 16 25.0000000  0  6  1  7 11 16 20 25
  -1887404.73506  22913596.93006  -1353094.73445  22913604.70345
   -808788.02806  22692448.60906   -586950.62446  22692454.64546
   1087548.35407  20969917.28107    810852.97746  20969922.14546
  -1403257.90107  21992977.42207  -1011774.84846  21992984.28146
   -542063.14808  20415563.78108   -381442.03547  20415568.34047
   -957774.68904  23656949.47704   -662588.80345  23656955.81645
  0  7 10 12 16 30.0000000  0  6  1  7 11 16 20 25
  -1903059.68906  22910617.89106  -1365293.40046  22910625.89846
   -813956.87006  22691464.90606   -590978.27846  22691471.27046
   1099292.00808  20972152.23408    820003.86846  20972157.00446
  -1415112.95706  21990721.43806  -1021012.55746  21990728.07046
   -545142.95107  20414977.60207   -383841.87647  20414981.96147
   -964448.48604  23655678.62504   -667789.13445  23655688.13345
  0  7 10 12 16 35.0000000  0  6  1  7 11 16 20 25
  -1918691.36306  22907642.95306  -1377473.88846  22907651.19546
   -819094.49006  22690487.02306   -594981.61646  22690493.30546
   1111063.42908  20974392.03108    829176.39946  20974396.75446
  -1426943.79707  21988470.16407  -1030231.37746  21988476.93846
   -548195.16108  20414396.76608   -386220.21847  20414401.19547
   -971093.90505  23654415.02305   -672967.38045  23654423.40645
  0  7 10 12 16 40.0000000  0  6  1  7 11 16 20 25
  -1934300.49506  22904672.96906  -1389636.81446  22904680.70746
   -824201.70506  22689515.74206   -598961.25846  22689522.05946
   1122861.77608  20976637.19508    838369.90246  20976641.93046
  -1438751.31307  21986223.47707  -1039432.01646  21986230.06346
   -551220.58808  20413821.17208   -388577.69147  20413825.64847
   -977711.57405  23653155.04705   -678123.97645  23653161.94145
  0  7 10 12 16 45.0000000  0  6  1  7 11 16 20 25
  -1949887.42506  22901706.63306  -1401782.45146  22901714.87546
   -829278.75906  22688548.88306   -602917.40446  22688555.69146
   1134686.69808  20978887.37508    847584.11747  20978892.08647
  -1450535.79107  21983980.61707  -1048614.71346  21983987.22746
   -554219.51908  20413250.42208   -390914.51647  20413254.78147
   -984301.87005  23651901.19505   -683259.23445  23651908.11345
  0  7 10 12 16 50.0000000  0  6  1  7 11 16 20 25
  -1965451.75906  22898745.12506  -1413910.45746  22898753.37946
   -834325.33806  22687588.75006   -606849.80846  22687595.68046
   1146538.55908  20981142.70308    856819.33147  20981147.49647
  -1462296.83207  21981742.49207  -1057779.14946  21981749.38746
   -557191.62908  20412684.85208   -393230.44047  20412689.12947
   -990864.52605  23650652.27305   -688372.98545  23650659.63745
  0  7 10 12 16 55.0000000  0  6  1  7 11 16 20 25
  -1980994.10306  22895787.44506  -1426021.33246  22895796.26246
   -839342.10306  22686634.06306   -610758.99146  22686640.74246
   1158416.78108  20983402.95308    866075.08146  20983407.81646
  -1474035.05006  21979508.87506  -1066925.80046  21979515.67246
   -560137.51008  20412124.28108   -395525.92647  20412128.61747
   -997400.06405  23649408.77305   -693465.55045  23649414.52745
  0  7 10 12 17  0.0000000  0  6  1  7 11 16 20 25
  -1996513.38606  22892834.14106  -1438114.24946  22892843.00446
   -844327.91806  22685685.30506   -614644.03846  22685692.25846
   1170322.38408  20985668.86708    875352.16947  20985673.77747
  -1485749.41707  21977280.08607  -1076053.87946  21977287.06346
   -563056.10908  20411568.75808   -397800.15647  20411573.22347
  -1003907.47605  23648169.90605   -698536.25645  23648175.54345
  0  7 10 12 17  5.0000000  0  6  1  7 11 16 20 25
  -2012010.49206  22889885.26606  -1450189.89546  22889893.14546
   -849283.59306  22684742.49206   -618505.59746  22684749.68046
   1182254.54108  20987939.28108    884649.95547  20987944.19147
  -1497440.72207  21975055.13307  -1085163.97646  21975062.05146
   -565948.25908  20411018.60208   -400053.77647  20411023.03147
  -1010387.52205  23646936.46905   -703585.64145  23646942.75045
  0  7 10 12 17 10.0000000  0  6  1  7 11 16 20 25
  -2027485.46706  22886940.30506  -1462248.27246  22886948.02046
   -854209.33906  22683805.18006   -622343.83646  22683812.66046
   1194213.11808  20990215.10208    893968.32247  20990219.97747
  -1509109.10607  21972834.69507  -1094256.20846  21972841.10546
   -568814.07008  20410473.07808   -402286.87047  20410477.37947
  -1016840.40705  23645709.53905   -708613.84345  23645715.56345
  0  7 10 12 17 15.0000000  0  6  1  7 11 16 20 25
  -2042937.28406  22884000.26606  -1474288.61546  22884008.37946
   -859104.06206  22682873.33606   -626157.89946  22682879.73446
   1206199.19708  20992495.82008    903308.11347  20992500.66047
  -1520753.46107  21970618.71907  -1103329.71446  21970624.73046
   -571652.49508  20409932.98408   -404498.62147  20409937.36747
  -1023264.99805  23644486.82805   -713619.98745  23644495.23445
  0  7 10 12 17 20.0000000  0  6  1  7 11 16 20 25
  -2058366.49206  22881063.92206  -1486311.33246  22881071.74246
   -863968.27406  22681948.41406   -629948.19046  22681955.02346
   1218212.14208  20994781.89108    912668.84347  20994786.85947
  -1532374.43007  21968407.48407  -1112384.99846  21968413.91846
   -574464.12208  20409398.09408   -406689.49647  20409402.62947
  -1029661.92805  23643269.10905   -718604.58845  23643276.14545
  0  7 10 12 17 25.0000000  0  6  1  7 11 16 20 25
  -2073773.04406  22878132.28106  -1498316.40946  22878140.05546
   -868801.97206  22681028.18806   -633714.70546  22681034.80946
   1230252.04808  20997073.13308    922050.57747  20997078.30147
  -1543971.92507  21966200.13307  -1121421.99746  21966206.69546
   -577248.87908  20408868.11708   -408859.43447  20408872.62947
  -1036031.03305  23642056.84405   -723567.49345  23642063.65245
  0  7 10 12 17 30.0000000  0  6  1  7 11 16 20 25
  -2089158.23906  22875204.14806  -1510304.83846  22875211.75846
   -873606.41406  22680113.82806   -637458.42246  22680120.87546
   1242317.56208  20999368.70308    931452.26947  20999373.63747
  -1555547.27707  21963997.39107  -1130441.74646  21964004.05946
   -580008.09808  20408342.95308   -411009.46947  20408347.40647
  -1042373.67605  23640849.97705   -728509.81345  23640857.37545
  0  7 10 12 17 35.0000000  0  6  1  7 11 16 20 25
  -2104522.06306  22872280.84406  -1522276.61846  22872288.33646
   -878381.71206  22679205.03106   -641179.44546  22679212.40646
   1254408.69708  21001669.76608    940873.93446  21001674.69946
  -1567100.55807  21961798.93807  -1139444.28946  21961805.69946
   -582741.78108  20407822.83608   -413139.61247  20407827.31347
  -1048689.83605  23639647.82805   -733431.48945  23639654.88745
  0  7 10 12 17 40.0000000  0  6  1  7 11 16 20 25
  -2119864.52406  22869361.10206  -1534231.74246  22869368.77046
   -883127.73506  22678302.07006   -644877.66546  22678308.79746
   1266525.42608  21003975.32008    950315.54647  21003980.27747
  -1578631.69707  21959604.58607  -1148429.58246  21959611.35946
   -585449.92308  20407307.31308   -415249.84747  20407311.70747
  -1054979.54405  23638451.08605   -738332.55445  23638456.86345
  0  7 10 12 17 45.0000000  0  6  1  7 11 16 20 25
  -2135185.49706  22866445.32806  -1546170.12446  22866453.07846
   -887844.44906  22677404.53106   -648553.01346  22677411.17646
   1278667.86008  21006286.06308    959777.18646  21006290.99646
  -1590140.57807  21957414.93807  -1157397.52646  21957421.65246
   -588132.41608  20406796.87508   -417340.09347  20406801.25847
  -1061242.67605  23637259.10905   -743212.89745  23637265.70745
  0  7 10 12 17 50.0000000  0  6  1  7 11 16 20 25
  -2150484.55306  22863534.36706  -1558091.44046  22863542.63346
   -892531.40906  22676512.59406   -652205.16946  22676519.36746
   1290836.39108  21008601.83608    969259.14946  21008606.81646
  -1601626.75807  21955228.85207  -1166347.77946  21955235.25046
   -590788.83908  20406291.42208   -419410.02847  20406295.95747
  -1067478.85405  23636072.11705   -748072.21845  23636079.28145
  0  7 10 12 17 55.0000000  0  6  1  7 11 16 20 25
  -2165763.15606  22860626.52306  -1569996.82646  22860634.71946
   -897190.01406  22675625.84406   -655835.24746  22675632.62946
   1303029.62108  21010921.90608    978760.35146  21010926.94546
  -1613091.66207  21953047.46107  -1175281.46646  21953053.68446
   -593420.65608  20405790.56308   -421460.79347  20405794.95747
  -1073689.37305  23634890.98405   -752911.54645  23634897.59445
  0  7 10 12 18  0.0000000  0  6  1  7 11 16 20 25
  -2181019.73506  22857723.28906  -1581885.03546  22857731.47346
   -901818.87806  22674745.16406   -659442.14446  22674752.19946
   1315248.97208  21013247.21108    988281.91246  21013252.20346
  -1624533.83707  21950870.00807  -1184197.43846  21950876.59446
   -596026.39608  20405294.58608   -423491.23547  20405298.95747
  -1079872.90105  23633714.44505   -757729.87045  23633721.00845
  0  7 10 12 18  5.0000000  0  6  1  7 11 16 20 25
  -2196256.84006  22854823.68806  -1593758.07046  22854831.88346
   -906420.38306  22673869.50006   -663027.72146  22673876.65246
   1327491.96908  21015577.24208    997821.90646  21015582.11746
  -1635955.79507  21948696.44507  -1193097.64946  21948703.28946
   -598608.50208  20404803.28908   -425503.26247  20404807.68447
  -1086031.83205  23632542.44505   -762529.02845  23632548.97345
  0  7 10 12 18 10.0000000  0  6  1  7 11 16 20 25
  -2211475.68506  22851928.02306  -1605616.87546  22851935.76246
   -910995.80506  22672998.99206   -666592.98746  22673006.12146
   1339757.35408  21017911.09408   1007379.34246  21017915.95746
  -1647358.72607  21946526.52307  -1201983.04046  21946533.06346
   -601168.23508  20404316.14808   -427497.85647  20404320.50847
  -1092167.36005  23631374.57005   -767309.96345  23631381.58245
  0  7 10 12 18 15.0000000  0  6  1  7 11 16 20 25
  -2226675.66906  22849035.55506  -1617460.99646  22849042.95346
   -915544.53406  22672133.14806   -670137.45446  22672140.32446
   1352045.74308  21020249.39108   1016954.69946  21020254.33646
  -1658742.09807  21944360.30507  -1210853.18946  21944366.25846
   -603705.00508  20403833.60908   -429474.55747  20403838.02747
  -1098278.95305  23630211.24205   -772072.22945  23630217.85245
  0  7 10 12 18 20.0000000  0  6  1  7 11 16 20 25
  -2241856.42806  22846146.45306  -1629290.11346  22846154.12146
   -920066.18006  22671272.85906   -673660.83046  22671279.91846
   1364357.46408  21022592.27308   1026548.23646  21022597.34846
  -1670105.52307  21942197.86707  -1219707.79846  21942203.82046
   -606218.44908  20403355.16408   -431433.08247  20403359.55947
  -1104366.26705  23629052.66405   -776815.55745  23629058.67645
  0  7 10 12 18 25.0000000  0  6  1  7 11 16 20 25
  -2257017.61806  22843261.77306  -1641103.98746  22843269.51246
   -924560.50806  22670417.46906   -677162.90246  22670424.21946
   1376692.85308  21024939.75808   1036160.22146  21024944.66846
  -1681448.61707  21940039.45307  -1228546.55346  21940045.61746
   -608708.25708  20402881.45308   -433373.18847  20402885.88347
  -1110428.86305  23627899.27305   -781539.63545  23627906.11745
  0  7 10 12 18 30.0000000  0  6  1  7 11 16 20 25
  -2272158.18706  22840379.90606  -1652901.80546  22840387.72746
   -929026.37506  22669568.18006   -680642.79046  22669574.57846
   1389052.93307  21027291.64807   1045791.45446  21027296.60546
  -1692770.35507  21937885.00007  -1237368.67146  21937891.09446
   -611173.40508  20402412.33608   -435294.08147  20402416.69547
  -1116465.81305  23626751.15605   -786243.74245  23626758.40245
  0  7 10 12 18 35.0000000  0  6  1  7 11 16 20 25
  -2287279.16406  22837502.52306  -1664684.36346  22837510.30946
   -933464.88806  22668722.99206   -684101.37746  22668729.60246
   1401436.67108  21029648.10208   1055441.11746  21029653.18846
  -1704071.78607  21935734.32007  -1246174.96646  21935740.53146
   -613614.86008  20401947.61708   -437196.51247  20401952.07047
  -1122477.98505  23625606.46105   -790928.54945  23625613.00045
  0  7 10 12 18 40.0000000  0  6  1  7 11 16 20 25
  -2302379.25206  22834629.21106  -1676450.62946  22834637.51246
   -937874.65806  22667884.39106   -687537.55946  22667890.61346
   1413845.38208  21032009.49208   1065110.24046  21032014.71946
  -1715351.62707  21933587.73407  -1254964.43846  21933593.77046
   -616031.38408  20401487.98408   -439079.51247  20401492.39147
  -1128464.22805  23624467.64105   -795593.17445  23624475.21545
  0  7 10 12 18 45.0000000  0  6  1  7 11 16 20 25
  -2317458.24606  22831759.44506  -1688200.45646  22831768.22746
   -942255.53806  22667050.36706   -690951.22346  22667056.93046
   1426279.22107  21034375.59407   1074798.93746  21034380.82046
  -1726609.66307  21931445.52307  -1263736.93146  21931451.41846
   -618422.78808  20401032.85208   -440942.93947  20401037.24647
  -1134424.30805  23623332.87505   -800237.34745  23623339.53145
  0  7 10 12 18 50.0000000  0  6  1  7 11 16 20 25
  -2332515.86806  22828894.52306  -1699933.63046  22828903.23446
   -946607.24906  22666222.29706   -694342.16546  22666228.78946
   1438738.44808  21036746.46108   1084507.41746  21036751.61746
  -1737845.64307  21929307.31307  -1272492.23646  21929313.31346
   -620788.75608  20400582.63308   -442786.55147  20400586.93447
  -1140357.87405  23622202.97705   -804860.87745  23622210.24645
  0  7 10 12 18 55.0000000  0  6  1  7 11 16 20 25
  -2347552.65606  22826032.73406  -1711650.56846  22826041.43446
   -950930.33606  22665399.82806   -697710.79446  22665406.00446
   1451222.46708  21039122.21908   1094235.21746  21039127.52746
  -1749060.08707  21927173.39107  -1281230.74846  21927179.46146
   -623129.87708  20400136.99208   -444610.80047  20400141.23447
  -1146265.55905  23621080.12505   -809464.23945  23621087.72345
  0  7 10 12 19  0.0000000  0  6  1  7 11 16 20 25
  -2362569.57906  22823175.57006  -1723352.03946  22823184.35246
   -955225.78206  22664582.28106   -701057.88946  22664588.62146
   1463730.36008  21041502.28908   1103981.62246  21041507.50446
  -1760254.03407  21925043.18807  -1289953.29046  21925049.00046
   -625447.14108  20399696.19508   -446416.45847  20399700.43847
  -1152148.29105  23619960.39105   -814048.16245  23619967.43845
  0  7 10 12 19  5.0000000  0  6  1  7 11 16 20 25
  -2377566.22606  22820321.43806  -1735037.72546  22820330.19546
   -959493.17406  22663769.96906   -704383.12746  22663776.12146
   1476262.52508  21043887.35208   1113746.93546  21043892.62546
  -1771427.04207  21922917.10907  -1298659.51446  21922923.33246
   -627740.10808  20399259.96908   -448203.18047  20399264.32847
  -1158005.59405  23618846.07005   -818612.25345  23618853.04745
  0  7 10 12 19 10.0000000  0  6  1  7 11 16 20 25
  -2392542.77806  22817471.46906  -1746707.73646  22817480.02746
   -963732.71306  22662963.12506   -707686.66746  22662969.96946
   1488818.72907  21046276.43007   1123530.98346  21046281.68046
  -1782579.33007  21920794.95307  -1307349.58846  21920801.04746
   -630009.01608  20398828.26608   -449971.15547  20398832.67247
  -1163837.80305  23617736.18005   -823156.82245  23617742.68445
  0  7 10 12 19 15.0000000  0  6  1  7 11 16 20 25
  -2407499.84206  22814625.46106  -1758362.57446  22814633.86746
   -967944.94906  22662161.73406   -710968.94446  22662168.43846
   1501398.40908  21048670.46108   1133333.32646  21048675.86346
  -1793711.39407  21918676.39807  -1316023.90846  21918682.83246
   -632254.39008  20398400.60208   -451720.79547  20398405.10247
  -1169645.40105  23616631.17205   -827682.18545  23616638.64145
  0  7 10 12 19 20.0000000  0  6  1  7 11 16 20 25
  -2422436.62706  22811782.81306  -1770001.59746  22811791.09046
   -972129.19306  22661365.75806   -714229.39646  22661372.59046
   1514002.27708  21051068.76608   1143154.51946  21051074.14546
  -1804822.56507  21916562.00007  -1324681.95246  21916568.43446
   -634475.53608  20397978.18808   -453451.55347  20397982.66447
  -1175427.66205  23615530.51605   -832187.82045  23615538.07845
  0  7 10 12 19 25.0000000  0  6  1  7 11 16 20 25
  -2437353.94806  22808944.14106  -1781625.42646  22808952.10246
   -976286.15606  22660574.46906   -717468.57546  22660581.17246
   1526629.52508  21053471.78908   1152993.92546  21053477.30946
  -1815913.59307  21914451.74207  -1333324.29546  21914458.03546
   -636673.22108  20397559.83608   -455164.02947  20397564.32447
  -1181185.31505  23614434.88305   -836674.28945  23614441.09445
  0  7 10 12 19 30.0000000  0  6  1  7 11 16 20 25
  -2452252.44606  22806109.12506  -1793234.60546  22806117.06346
   -980416.53406  22659788.30506   -720687.04946  22659794.87946
   1539279.53108  21055878.77308   1162851.07346  21055884.18846
  -1826985.11807  21912344.64107  -1341951.44646  21912351.15646
   -638848.13208  20397145.99208   -456858.76247  20397150.49247
  -1186919.13605  23613343.93805   -841142.18445  23613350.37145
  0  7 10 12 19 35.0000000  0  6  1  7 11 16 20 25
  -2467131.41006  22803278.07006  -1804828.57146  22803286.25446
   -984519.66606  22659007.82806   -723884.28046  22659014.22746
   1551952.91808  21058290.57808   1172726.43746  21058295.88746
  -1838036.45607  21910241.61707  -1350562.87846  21910248.30946
   -640999.58808  20396736.45308   -458535.22047  20396741.02347
  -1192628.35305  23612256.98405   -845590.90645  23612263.96145
  0  7 10 12 19 40.0000000  0  6  1  7 11 16 20 25
  -2481991.89206  22800450.14106  -1816408.13246  22800458.54746
   -988596.59306  22658231.93006   -727061.10046  22658238.23446
   1564648.65208  21060706.64808   1182619.21346  21060712.20346
  -1849068.70907  21908142.25807  -1359159.42746  21908148.73846
   -643128.64008  20396331.34408   -460194.21647  20396335.94947
  -1198314.01605  23611175.57005   -850021.31345  23611181.79345
  0  7 10 12 19 45.0000000  0  6  1  7 11 16 20 25
  -2496832.93206  22797625.70306  -1827972.54846  22797633.82846
   -992646.30306  22657461.05506   -730216.72246  22657467.37146
   1577367.71207  21063127.03907   1192530.15846  21063132.53546
  -1860080.88907  21906046.79707  -1367740.33746  21906053.34846
   -645234.31308  20395930.71108   -461835.00047  20395935.25847
  -1203975.12705  23610098.47705   -854432.55445  23610105.51245
  0  7 10 12 19 50.0000000  0  6  1  7 11 16 20 25
  -2511654.52506  22794805.14106  -1839521.79946  22794813.11346
   -996668.86606  22656695.78106   -733351.19146  22656702.72346
   1590110.03107  21065551.61707   1202459.23346  21065557.11346
  -1871073.02507  21903954.91407  -1376305.62446  21903961.90246
   -647316.65508  20395534.59408   -463457.59947  20395539.10547
  -1209611.76605  23609025.36705   -858824.71045  23609031.67245
  0  7 10 12 19 55.0000000  0  6  1  7 11 16 20 25
  -2526457.57406  22791988.13306  -1851056.60646  22791996.46946
  -1000665.09006  22655935.37506   -736465.13846  22655942.05546
   1602874.73608  21067980.75008   1212405.75246  21067986.29346
  -1882045.98407  21901866.82007  -1384855.96546  21901873.77346
   -649376.53008  20395142.50008   -465062.68847  20395147.00047
  -1215224.75905  23607956.96105   -863198.44645  23607963.52345
  0  7 10 12 20  0.0000000  0  6  1  7 11 16 20 25
  -2541241.73906  22789174.83606  -1862576.70846  22789183.60546
  -1004634.72306  22655179.69506   -739558.35846  22655185.94146
   1615662.13008  21070414.18808   1222369.94746  21070419.60246
  -1892999.45307  21899782.55507  -1393391.12846  21899789.36346
   -651413.60708  20394754.84408   -466650.01447  20394759.36747
  -1220813.81805  23606894.08605   -867553.52045  23606899.26645
  0  7 10 12 20  5.0000000  0  6  1  7 11 16 20 25
  -2556007.72906  22786365.19506  -1874082.63746  22786373.67246
  -1008578.45606  22654429.72706   -742631.40446  22654435.91446
   1628471.47808  21072851.57008   1232351.25146  21072857.10246
  -1903934.16307  21897701.72707  -1401911.67046  21897708.52346
   -653428.63808  20394371.29708   -468220.16647  20394375.71547
  -1226379.68405  23605834.45305   -871890.54045  23605839.83245
  0  7 10 12 20 10.0000000  0  6  1  7 11 16 20 25
  -2570754.87706  22783558.89106  -1885573.90046  22783567.19146
  -1012495.65106  22653683.93006   -745683.75746  22653690.35246
   1641303.46408  21075293.50008   1242350.19746  21075298.91446
  -1914849.44007  21895624.37507  -1410417.07046  21895631.02046
   -655420.92908  20393992.38308   -469772.59847  20393996.77747
  -1231921.60205  23604779.92205   -876208.91245  23604785.98045
  0  7 10 12 20 15.0000000  0  6  1  7 11 16 20 25
  -2585483.22906  22780755.68006  -1897050.52146  22780764.15646
  -1016386.34506  22652943.57006   -748715.46746  22652950.26246
   1654157.99308  21077739.55508   1252366.70846  21077744.92246
  -1925745.33607  21893551.07007  -1418907.36846  21893557.77346
   -657390.57408  20393617.37508   -471307.38847  20393621.78147
  -1237439.67905  23603729.07805   -880508.68645  23603736.33645
  0  7 10 12 20 20.0000000  0  6  1  7 11 16 20 25
  -2600193.94506  22777956.41406  -1908513.38746  22777964.50446
  -1020251.61106  22652208.35906   -751727.36146  22652215.09846
   1667033.90908  21080189.77308   1262399.88146  21080195.12946
  -1936623.00907  21891481.03107  -1427383.46846  21891487.69946
   -659338.69908  20393246.71108   -472825.39947  20393251.10547
  -1242935.02205  23602684.24205   -884790.71645  23602691.48845
  0  7 10 12 20 25.0000000  0  6  1  7 11 16 20 25
  -2614886.18506  22775160.48406  -1919961.84946  22775168.73846
  -1024090.77306  22651477.95306   -754718.92546  22651485.17646
   1679932.00708  21082644.33608   1272450.34046  21082649.58646
  -1947481.66107  21889415.00007  -1435844.74546  21889421.66846
   -661264.53808  20392880.11708   -474326.05247  20392884.54747
  -1248406.84405  23601643.07805   -889054.43645  23601649.05545
  0  7 10 12 20 30.0000000  0  6  1  7 11 16 20 25
  -2629560.39006  22772368.38306  -1931396.27446  22772376.85946
  -1027904.19006  22650752.05506   -757690.41546  22650759.17246
   1692851.87208  21085102.71908   1282517.75546  21085108.14546
  -1958321.67007  21887352.14107  -1444291.49846  21887358.39846
   -663168.46708  20392517.97708   -475809.63047  20392522.43047
  -1253855.54105  23600606.06305   -893300.17645  23600612.29745
  0  7 10 12 20 35.0000000  0  6  1  7 11 16 20 25
  -2644216.45006  22769579.43806  -1942816.54746  22769587.63346
  -1031691.78706  22650031.39806   -760641.78546  22650038.69146
   1705793.56308  21087565.56308   1292602.18646  21087570.74246
  -1969143.00007  21885292.70307  -1452723.69146  21885299.16046
   -665050.43008  20392160.00808   -477276.08947  20392164.25047
  -1259281.03105  23599573.46905   -897527.83145  23599580.18445
  0  7 10 12 20 40.0000000  0  6  1  7 11 16 20 25
  -2658854.93506  22766793.95306  -1954223.11346  22766802.00846
  -1035454.06906  22649315.23406   -763573.41546  22649322.56346
   1718756.52808  21090032.39108   1302703.18946  21090037.45346
  -1979946.16807  21883237.21107  -1461141.72546  21883243.49246
   -666910.95608  20391805.80508   -478725.84347  20391810.09447
  -1264683.91805  23598546.35205   -901737.84945  23598553.59845
  0  7 10 12 20 45.0000000  0  6  1  7 11 16 20 25
  -2673474.17606  22764011.48406  -1965614.69646  22764019.73846
  -1039189.38306  22648604.45306   -766484.04746  22648611.73446
   1731742.41508  21092503.75808   1312822.05046  21092508.71546
  -1990729.53207  21881185.08607  -1469544.32946  21881191.40246
   -668748.43908  20391456.16408   -480157.64047  20391460.46547
  -1270062.50305  23597522.07805   -905928.94145  23597528.86345
  0  7 10 12 20 50.0000000  0  6  1  7 11 16 20 25
  -2688076.29606  22761233.37506  -1976992.94846  22761241.89846
  -1042899.92306  22647897.89106   -769375.38046  22647904.73446
   1744749.11108  21094978.64808   1322957.13846  21094983.65246
  -2001495.21007  21879136.31307  -1477933.16146  21879142.46546
   -670564.97608  20391110.55508   -481573.12447  20391114.87947
  -1275418.85705  23596502.84405   -910102.71145  23596509.45345
  0  7 10 12 20 55.0000000  0  6  1  7 11 16 20 25
  -2702660.52806  22758457.84406  -1988357.25446  22758466.02746
  -1046584.94606  22647197.11706   -772246.82446  22647204.10546
   1757777.23608  21097457.82808   1333108.92046  21097462.80946
  -2012242.50307  21877091.27307  -1486307.67446  21877097.42646
   -672359.90808  20390768.82008   -482971.77047  20390773.07447
  -1280752.36305  23595487.44505   -914258.67945  23595494.45745
  0  7 10 12 21  0.0000000  0  6  1  7 11 16 20 25
  -2717228.07306  22755685.35206  -1999708.56446  22755694.46146
  -1050245.55406  22646500.53906   -775099.25346  22646507.42246
   1770825.73708  21099940.78908   1343276.57346  21099945.75846
  -2022972.53507  21875049.43007  -1494668.73546  21875055.45346
   -674134.32508  20390431.22708   -484354.43147  20390435.48047
  -1286064.05105  23594476.79705   -918397.65945  23594483.69145
  0  7 10 12 21  5.0000000  0  6  1  7 11 16 20 25
  -2731778.87806  22752916.47706  -2011046.82246  22752925.31646
  -1053881.74906  22645808.77306   -777932.64646  22645815.34846
   1783894.55908  21102427.77308   1353460.06647  21102432.67247
  -2033685.34307  21873010.71107  -1503016.36746  21873016.88746
   -675888.22908  20390097.28908   -485721.10347  20390101.54347
  -1291353.98805  23593470.30505   -922519.65545  23593477.77345
  0  7 10 12 21 10.0000000  0  6  1  7 11 16 20 25
  -2746311.52206  22750151.01606  -2022370.91946  22750159.19946
  -1057492.11306  22645121.61706   -780745.91246  22645128.54746
   1796985.15208  21104918.96908   1363660.52146  21104923.73846
  -2044379.45007  21870975.72707  -1511349.41246  21870981.91446
   -677620.17508  20389767.75008   -487070.66447  20389771.94547
  -1296620.69705  23592468.06305   -926623.53545  23592475.43845
  0  7 10 12 21 15.0000000  0  6  1  7 11 16 20 25
  -2760826.67106  22747388.75006  -2033681.38746  22747397.16846
  -1061077.34406  22644439.21106   -783539.58946  22644445.63346
   1810096.85908  21107413.96108   1373877.42647  21107418.84847
  -2055055.52907  21868944.11707  -1519668.41446  21868950.59846
   -679330.86708  20389442.33608   -488403.66847  20389446.54347
  -1301864.85405  23591470.28905   -930709.85845  23591477.80545
  0  7 10 12 21 20.0000000  0  6  1  7 11 16 20 25
  -2775325.49106  22744629.78106  -2044979.13046  22744638.14146
  -1064638.58706  22643761.43006   -786314.57746  22643768.02746
   1823228.45408  21109912.83608   1384109.83647  21109917.65247
  -2065714.76507  21866915.91407  -1527974.29546  21866922.41846
   -681021.50108  20389120.68808   -489721.04647  20389124.87147
  -1307087.65505  23590476.28905   -934779.55245  23590484.64845
  0  7 10 12 21 25.0000000  0  6  1  7 11 16 20 25
  -2789807.77406  22741873.89106  -2056264.00846  22741882.21546
  -1068175.61406  22643088.30506   -789070.69946  22643095.14846
   1836380.13508  21112415.50008   1394357.89247  21112420.25847
  -2076356.95407  21864890.68007  -1536266.90146  21864897.18446
   -682691.84808  20388802.68808   -491022.61247  20388807.00047
  -1312288.82505  23589486.10205   -938832.41845  23589494.46145
  0  7 10 12 21 30.0000000  0  6  1  7 11 16 20 25
  -2804272.70206  22739121.18806  -2067535.36146  22739129.50046
  -1071687.65606  22642420.52306   -791807.35346  22642426.85246
   1849552.69708  21114922.16408   1404622.22046  21114926.94546
  -2086981.26907  21862868.58607  -1544545.57946  21862874.80946
   -684341.13308  20388488.92208   -492307.76047  20388493.14147
  -1317467.57905  23588500.93005   -942867.80545  23588507.43445
  0  7 10 12 21 35.0000000  0  6  1  7 11 16 20 25
  -2818719.13006  22736372.57006  -2078792.29046  22736380.39146
  -1075173.54106  22641756.85906   -794523.62346  22641762.73046
   1862747.29208  21117433.06308   1414903.71446  21117438.06646
  -2097586.57207  21860850.46107  -1552809.44646  21860856.81346
   -685968.18908  20388179.41408   -493575.59347  20388183.59847
  -1322622.78205  23587520.22705   -946884.83845  23587526.93045
  0  7 10 12 21 40.0000000  0  6  1  7 11 16 20 25
  -2833148.34406  22733626.63306  -2090035.78946  22733634.53546
  -1078634.62106  22641098.06306   -797220.56746  22641104.15646
   1875962.58508  21119947.70308   1425201.33746  21119952.76646
  -2108174.21407  21858835.85207  -1561059.54446  21858841.99246
   -687574.34208  20387873.63308   -494827.13947  20387877.77047
  -1327755.72105  23586543.47705   -950884.51345  23586549.93445
  0  7 10 12 21 45.0000000  0  6  1  7 11 16 20 25
  -2847560.39906  22730883.64806  -2101265.91746  22730891.19946
  -1082070.86106  22640444.46106   -799898.15946  22640450.43846
   1889198.53608  21122466.50808   1435515.05646  21122471.58246
  -2118744.21007  21856824.43807  -1569295.89646  21856830.71946
   -689159.64508  20387571.82808   -496062.43947  20387575.94147
  -1332866.46705  23585570.02305   -954866.89945  23585576.89545
  0  7 10 12 21 50.0000000  0  6  1  7 11 16 20 25
  -2861954.41206  22728144.87506  -2112482.00746  22728152.95346
  -1085481.47506  22639795.64106   -802555.77846  22639801.54746
   1902456.01508  21124989.36708   1445845.55946  21124994.40646
  -2129295.68807  21854816.53107  -1577517.81246  21854822.57846
   -690723.21808  20387274.53108   -497280.80347  20387278.71547
  -1337954.15205  23584602.72705   -958831.30045  23584609.92645
